Regional Weather Roundup
Issued by NWS

Home | Current Version | Previous Version | Graphics & Text | Print | Product List | Glossary On
Versions: 1 2 3 4 5 6 7 8 9 10 11 12 13 14 15 16 17 18 19 20 21 22 23 24 25 26 27 28 29 30 31 32 33 34 35 36 37 38 39 40 41 42 43 44 45 46 47 48 49 50
000
ASUS43 KDMX 221006
RWRIA

WEATHER ROUNDUP FOR IOWA
NATIONAL WEATHER SERVICE DES MOINES IA
500 AM CDT SAT JUL 22 2017

NOTE: "FAIR" INDICATES FEW OR NO CLOUDS BELOW 12,000 FEET WITH NO
SIGNIFICANT WEATHER AND/OR OBSTRUCTIONS TO VISIBILITY.

* - THESE STATIONS ARE NOT NWS STATIONS...THUS NOT UNDER NWS
QUALITY CONTROL.  THEY ALSO DO NOT REPORT WEATHER SUCH
AS PRECIPITATION OR FOG.

IAZ001>003-012>014-020>022-031>034-043>046-221100-
   NORTHWEST IOWA

CITY           SKY/WX    TMP DP  RH WIND       PRES   REMARKS
CARROLL *      CLOUDY    73  73 100 CALM      29.81R
CHEROKEE *     CLOUDY    73  72  98 N3        29.83R
DENISON *      CLOUDY    73  73 100 NE9G16    29.82S FOG
ORANGE CITY *  CLOUDY    72  72 100 NE6       29.82F
SHELDON *      CLOUDY    72  70  94 E5        29.80F
SIOUX CITY     LGT RAIN  76  73  91 E10       29.80R
SPENCER        CLOUDY    73  71  93 NE8       29.83R
STORM LAKE *   CLOUDY    72  70  94 E10       29.81F FOG
$$

IAZ055>058-069>071-079>083-090>094-221100-
   SOUTHWEST IOWA

CITY           SKY/WX    TMP DP  RH WIND       PRES   REMARKS
ATLANTIC *     CLOUDY    75  73  94 N6        29.79R
AUDUBON *      LGT RAIN  73  72  94 NE8G16    29.81S VSB 1
CLARINDA *       N/A     75  72  88 N7        29.79R
COUNCIL BLFS * PTCLDY    79  70  73 N6        29.77R HX  81
CRESTON *      PTCLDY    79  72  78 W3        29.80R HX  82
HARLAN  *      CLOUDY    75  75 100 NE12      29.82R FOG
LAMONI         CLOUDY    81  72  74 SW12      29.77R HX  85
RED OAK *      CLOUDY    75  73  94 CALM      29.76S
SHENANDOAH *   CLEAR     77  72  83 CALM      29.77R
$$

IAZ047>049-059>061-072>074-084-221100-
   CENTRAL IOWA

CITY           SKY/WX    TMP DP  RH WIND       PRES   REMARKS
AMES           CLOUDY    74  73  97 E10       29.80R
ANKENY *       CLOUDY    75  73  94 N8G15     29.80R
BOONE *        CLOUDY    73  72  94 E9G16     29.80R
CHARITON *     CLOUDY    81  72  74 CALM      29.80R HX  84
DES MOINES     MOCLDY    82  73  74 SE3       29.77R HX  87
GRINNELL*      CLOUDY    74  68  82 E12       29.83F
KNOXVILLE *    CLOUDY    82  73  74 E5        29.79R HX  88
MARSHALLTOWN   CLOUDY    72  71  97 SE6       29.77S
NEWTON *       MOCLDY    75  72  88 E15G22    29.81R
PELLA *        MOCLDY    81  72  74 NE7       29.82R HX  86
$$

IAZ004>006-015-016-023>025-035-036-221100-
   NORTH CENTRAL IOWA

CITY           SKY/WX    TMP DP  RH WIND       PRES   REMARKS
ALGONA *       CLOUDY    70  70 100 NE5       29.81S FOG
CLARION *      CLOUDY    72  72 100 E6        29.80R
ESTHERVILLE    CLOUDY    70  70 100 CALM      29.80F
FORT DODGE *   CLOUDY    72  70  94 E9        29.81S
MASON CITY     CLOUDY    71  69  93 E5        29.81F
FOREST CITY *  CLOUDY    70  70 100 E3        29.81R FOG
WEBSTER CITY * CLOUDY    73  72  94 SE5       29.78S
IOWA FALLS *     N/A     72  71  96 CALM      29.79F
$$

IAZ007>011-017>019-026>030-037>042-050>054-066-221100-
   NORTHEAST IOWA

CITY           SKY/WX    TMP DP  RH WIND       PRES   REMARKS
CEDAR RAPIDS   LGT RAIN  69  69 100 SE5       29.85S
CHARLES CITY * CLOUDY    72  72 100 S8        29.78F
DECORAH *      CLOUDY    70  70 100 CALM      29.77S FOG
DUBUQUE        CLOUDY    68  68 100 S20G28    29.78F THUNDER
MONTICELLO *   CLOUDY    70  68  94 S12G22    29.83F
OELWEIN *        N/A    N/A N/A N/A MISG        N/A
WATERLOO       CLOUDY    71  68  90 SW7       29.75F
$$

IAZ064-065-067-068-078-221100-
   EAST CENTRAL IOWA

CITY           SKY/WX    TMP DP  RH WIND       PRES   REMARKS
DAVENPORT      TSTM      69  68  96 SE12      29.91R FOG
IOWA CITY      RAIN      72  69  90 E15       29.89R
MT. PLEASANT * LGT RAIN  71  70  97 NE14G23   29.87R
MUSCATINE *    HVY RAIN  72  70  94 E12G20    29.89R
QUAD CITIES    TSTM      70  68  93 E12       29.93R VSB 3/4
$$

IAZ062-063-075>077-085>089-095>099-221100-
   SOUTHEAST IOWA

CITY           SKY/WX    TMP DP  RH WIND       PRES   REMARKS
BURLINGTON     CLOUDY    72  72 100 NE13      29.86R
FAIRFIELD *    CLOUDY    73  70  88 E18G24    29.84R
FORT MADISON * LGT RAIN  79  73  83 N13       29.86R HX  82
KEOKUK *       CLOUDY    82  70  65 SW12      29.77S HX  86
OSKALOOSA *    CLOUDY    80  73  78 E13G21    29.83R HX  84
CENTERVILLE *    N/A     81  72  74 SW10      29.79R HX  84
OTTUMWA        CLOUDY    81  75  82 N9        29.81R HX  87
WASHINGTON *   CLOUDY    72  70  94 E10       29.90R
$$

ABBREVIATIONS USED IN REMARKS
   TC - TEMPERATURES IN CELSIUS
  WCI - WIND CHILL INDEX
   HX - HEAT INDEX
  VSB - VISIBILITY
$$





USA.gov is the U.S. government's official web portal to all federal, state and local government web resources and services.